Regional Weather Roundup
Issued by NWS

Home | Current Version | Previous Version | Text Only | Print | Product List | Glossary Off
Versions: 1 2 3 4 5 6 7 8 9 10 11 12 13 14 15 16 17 18 19 20 21 22 23 24 25 26 27 28 29 30 31 32 33 34 35 36 37 38 39 40 41 42 43 44 45 46 47 48 49 50

000
ASUS45 KSLC 220910
RWRUT

UTAH REGIONAL WEATHER ROUNDUP
NATIONAL WEATHER SERVICE SALT LAKE CITY UT
300 AM MDT FRI JUL 22 2016

UTZ001>011-023>025-221000-

NORTHERN UTAH

CITY           SKY/WX    TMP DP  RH WIND       PRES   REMARKS
BRIGHAM CITY     N/A     87  37  17 S15       30.10S
HILL AFB       CLOUDY    83  44  25 SE13      30.15F
LOGAN          CLOUDY    80  41  24 SE6       30.11F
OGDEN          CLOUDY    84  45  25 SE13      30.11F
PROVO AIRPORT  MOCLDY    73  52  46 S10       30.17F
SALT LAKE CITY MOCLDY    85  47  26 S9        30.12F
VERNAL         CLOUDY    58  52  80 SW5       30.26F
WENDOVER       CLOUDY    82  45  26 SE9       30.09F
HEBER CITY     LGT RAIN  68  50  52 W6        30.29F
WEST JORDAN    CLEAR     81  46  30 S10       30.17F

$$

UTZ012>022-026-027-221000-

SOUTHERN/CENTRAL UTAH

CITY           SKY/WX    TMP DP  RH WIND       PRES   REMARKS
BLANDING       MOCLDY    67  55  65 NE6       30.38S
BRYCE CANYON   PTCLDY    56  46  69 W9        30.44F
CEDAR CITY     CLEAR     74  44  34 SE8       30.24S
DELTA          MOCLDY    77  50  38 NW3       30.16S
MILFORD        CLEAR     67  45  45 S6        30.17F
MOAB/CYNLANDS  PTCLDY    72  45  37 SW3       30.17F
PRICE          CLEAR     67  48  50 NW7       30.29F
ST GEORGE      CLOUDY    86  45  23 S6        30.03R

$$

REGIONAL REPORTS     COLORADO/ARIZONA

CITY           SKY/WX    TMP DP  RH WIND       PRES   REMARKS
CRAIG, CO      CLEAR     50  45  83 CALM      30.35F
GRAND JUNCTION CLEAR     71  54  54 SE9       30.23S
RIFLE          CLOUDY    61  51  70 E3        30.31S
MONTROSE       CLOUDY    63  55  75 SE5       30.34S
CORTEZ         CLOUDY    64  56  75 SE6       30.32S
PAGE, AZ       NOT AVBL
GRAND CANYON   PTCLDY    60  50  69 CALM      30.37S
KINGMAN        CLEAR     84  43  23 MISG      30.07S
FLAGSTAFF      MOCLDY    57  54  89 CALM      30.41S

$$

REGIONAL REPORTS    NEVADA/IDAHO/WYOMING

CITY           SKY/WX    TMP DP  RH WIND       PRES   REMARKS
LAS VEGAS, NV  CLEAR     94  25   8 S5        29.89S
ELY            PTCLDY    70  32  24 SW9       30.27S
ELKO           CLEAR     62  21  20 W5        30.19R
POCATELLO, ID  PTCLDY    86  36  16 S18       30.06F
BURLEY         MOCLDY    68  43  40 W5        30.04R
EVANSTON, WY   CLOUDY    65  42  43 SW13      30.38S
ROCK SPRINGS   CLEAR     60  42  51 S5        30.33F
KEMMERER         N/A     57  34  41 N7        30.37F

$$



USA.gov is the U.S. government's official web portal to all federal, state and local government web resources and services.